Location: Peebles
(55.6412°N, 3.1714°W)
Time: 09:13:13
(UTC+00:00)

COSMOS 2251 DEB - Pass Details

Date: 01 December 2022
Orbit: 738 x 761 km, 74.0° (Epoch: 29 January)

Event Time Altitude Azimuth Distance (km) Brightness Sun altitude
Exits shadow 03:09:33 10° 31° (NNE) 2,232 ? -41.6°
Drops below altitude 10° 03:09:37 10° 31° (NNE) 2,259 ? -41.6°
Sets 03:11:59 0° 29° (NNE) 3,186 ? -41.3°
